TimeEDT,TemperatureF,Dew PointF,Humidity,Sea Level PressureIn,VisibilityMPH,Wind Direction,Wind SpeedMPH,Gust SpeedMPH,PrecipitationIn,Events,Conditions,WindDirDegrees,DateUTC
12:04 AM,42.8,39.2,87,30.11,3.0,Calm,Calm,-,N/A,,Scattered Clouds,0,2012-10-08 04:04:00
12:10 AM,42.8,39.2,87,30.11,1.8,Calm,Calm,-,N/A,,Partly Cloudy,0,2012-10-08 04:10:00
12:19 AM,41.0,39.2,93,30.11,3.0,Calm,Calm,-,N/A,,Clear,0,2012-10-08 04:19:00
12:25 AM,41.0,39.2,93,30.11,1.8,Calm,Calm,-,N/A,,Partly Cloudy,0,2012-10-08 04:25:00
12:27 AM,41.0,39.2,93,30.11,0.8,Calm,Calm,-,N/A,,Mist,0,2012-10-08 04:27:00
12:46 AM,41.0,39.2,93,30.12,0.5,Calm,Calm,-,N/A,Fog,Fog,0,2012-10-08 04:46:00
12:53 AM,39.9,39.0,97,30.12,0.8,Calm,Calm,-,N/A,,Mostly Cloudy,0,2012-10-08 04:53:00
1:03 AM,39.2,39.2,100,30.12,0.5,Calm,Calm,-,N/A,Fog,Fog,0,2012-10-08 05:03:00
1:53 AM,39.9,39.0,97,30.14,0.2,Calm,Calm,-,N/A,Fog,Fog,0,2012-10-08 05:53:00
2:53 AM,39.0,37.9,96,30.15,0.2,Calm,Calm,-,N/A,Fog,Fog,0,2012-10-08 06:53:00
3:53 AM,37.9,37.0,97,30.14,0.2,Calm,Calm,-,N/A,Fog,Fog,0,2012-10-08 07:53:00
4:53 AM,37.0,36.0,96,30.16,0.2,Calm,Calm,-,N/A,Fog,Fog,0,2012-10-08 08:53:00
5:53 AM,36.0,35.1,97,30.18,0.2,Calm,Calm,-,N/A,Fog,Fog,0,2012-10-08 09:53:00
6:53 AM,36.0,35.1,97,30.21,0.5,Calm,Calm,-,N/A,Fog,Fog,0,2012-10-08 10:53:00
7:53 AM,36.0,35.1,97,30.25,0.2,Calm,Calm,-,N/A,Fog,Fog,0,2012-10-08 11:53:00
8:12 AM,37.4,37.4,100,30.24,1.5,Calm,Calm,-,N/A,,Mostly Cloudy,0,2012-10-08 12:12:00
8:15 AM,37.4,37.4,100,30.24,3.0,Calm,Calm,-,N/A,,Mostly Cloudy,0,2012-10-08 12:15:00
8:32 AM,39.2,37.4,93,30.25,9.0,Calm,Calm,-,N/A,,Partly Cloudy,0,2012-10-08 12:32:00
8:53 AM,42.1,39.9,92,30.25,10.0,Calm,Calm,-,N/A,,Clear,0,2012-10-08 12:53:00
9:53 AM,46.9,39.9,77,30.27,10.0,NW,4.6,-,N/A,,Clear,310,2012-10-08 13:53:00
10:53 AM,48.0,41.0,77,30.27,10.0,Calm,Calm,-,N/A,,Partly Cloudy,0,2012-10-08 14:53:00
11:53 AM,51.1,41.0,68,30.26,10.0,Variable,3.5,-,N/A,,Clear,0,2012-10-08 15:53:00
12:53 PM,51.1,39.9,66,30.26,10.0,Calm,Calm,-,N/A,,Clear,0,2012-10-08 16:53:00
1:53 PM,53.1,39.9,61,30.27,10.0,Variable,3.5,-,N/A,,Clear,0,2012-10-08 17:53:00
2:53 PM,53.1,39.9,61,30.25,10.0,Calm,Calm,-,N/A,,Clear,0,2012-10-08 18:53:00
3:53 PM,52.0,39.9,63,30.26,10.0,SSW,3.5,-,N/A,,Scattered Clouds,200,2012-10-08 19:53:00
4:53 PM,52.0,39.9,63,30.26,10.0,Calm,Calm,-,N/A,,Mostly Cloudy,0,2012-10-08 20:53:00
5:53 PM,51.1,44.1,77,30.27,10.0,Calm,Calm,-,N/A,,Overcast,0,2012-10-08 21:53:00
6:53 PM,50.0,45.0,83,30.27,10.0,Calm,Calm,-,N/A,,Mostly Cloudy,0,2012-10-08 22:53:00
7:53 PM,46.9,45.0,93,30.27,10.0,Calm,Calm,-,N/A,,Overcast,0,2012-10-08 23:53:00
8:53 PM,46.9,44.1,90,30.27,10.0,Calm,Calm,-,N/A,,Mostly Cloudy,0,2012-10-09 00:53:00
10:53 PM,46.9,45.0,93,30.27,10.0,Calm,Calm,-,N/A,,Overcast,0,2012-10-09 02:53:00
11:53 PM,46.9,45.0,93,30.25,10.0,Calm,Calm,-,N/A,,Overcast,0,2012-10-09 03:53:00